Sigfox identifier Datetime Temperature Humidity SNR
003C23A5 2018-10-09 09:17:33 21.2 38 16.7
003C23A5 2018-10-09 08:09:29 21.3 37 16.5
003C23A5 2018-10-09 07:01:29 21.2 37 16.5
003C23A5 2018-10-09 05:53:30 21.2 37 16.7
003C23A5 2018-10-09 04:45:29 21.3 37 16.7
003C23A5 2018-10-09 01:21:21 21.3 37 16.7
003C23A5 2018-10-09 00:13:18 21.3 37 16.8
003C23A5 2018-10-08 23:05:10 21.3 37 16.5
003C23A5 2018-10-08 21:57:09 21.3 36 16.8
003C23A5 2018-10-08 20:49:07 21.2 36 16.8
003C23A5 2018-10-08 19:41:08 21.1 36 16.5
003C23A5 2018-10-08 18:33:04 21.1 36 16.4
003C23A5 2018-10-08 17:25:03 21.1 36 16.1
003C23A5 2018-10-08 16:17:04 21 36 16.2
003C23A5 2018-10-08 15:09:02 21 36 16.2
003C23A5 2018-10-08 12:53:05 20.8 36 16.1
003C23A5 2018-10-08 11:45:05 20.8 36 16
003C23A5 2018-10-08 10:37:10 20.8 36 15.9
003C23A5 2018-10-08 09:29:11 20.8 36 15.7
003C23A5 2018-10-08 08:21:13 20.8 36 15.6
003C23A5 2018-10-08 07:13:14 20.8 36 15.6
003C23A5 2018-10-08 06:05:20 20.8 36 15.4
003C23A5 2018-10-08 04:57:22 20.8 37 15.1
003C23A5 2018-10-08 03:49:25 20.9 37 15.6
003C23A5 2018-10-08 02:41:27 20.9 37 15.8
003C23A5 2018-10-08 01:33:31 20.9 37 15.4
003C23A5 2018-10-08 00:25:32 21 37 15.5
003C23A5 2018-10-07 23:17:35 21 37 15.4
003C23A5 2018-10-07 22:09:39 21 37 15.3
003C23A5 2018-10-07 21:01:44 21 38 15.8
003C23A5 2018-10-07 19:53:46 21 38 15.9
003C23A5 2018-10-07 18:45:48 21 38 18.9
003C23A5 2018-10-07 17:37:43 21 38 18.9
003C23A5 2018-10-07 16:29:41 21 38 18.8
003C23A5 2018-10-07 15:21:39 21 38 18.9
003C23A5 2018-10-07 14:13:38 21 38 18.9
003C23A5 2018-10-07 13:05:36 21 38 18.9
003C23A5 2018-10-07 10:49:29 21.1 38 19.1
003C23A5 2018-10-07 09:41:32 21 38 19.1
003C23A5 2018-10-07 08:33:30 21 38 19.1
003C23A5 2018-10-07 07:25:36 21 38 19.2
003C23A5 2018-10-07 06:17:34 21 38 19.3
003C23A5 2018-10-07 05:09:35 21.1 38 19.4
003C23A5 2018-10-07 04:01:37 21.1 38 19.5
003C23A5 2018-10-07 01:45:39 21.2 38 19.6
003C23A5 2018-10-07 00:37:41 21.2 38 19.8
003C23A5 2018-10-06 23:29:47 21.2 38 19.9
003C23A5 2018-10-06 22:21:47 21.2 38 19.8
003C23A5 2018-10-06 21:13:45 21.2 38 19.7
003C23A5 2018-10-06 20:05:47 21.3 38 19.6
003C23A5 2018-10-06 18:57:49 21.3 38 19.6
003C23A5 2018-10-06 17:49:55 21.2 38 19.5
003C23A5 2018-10-06 16:41:53 21.3 39 19.5
003C23A5 2018-10-06 15:33:56 21.3 38 19.5
003C23A5 2018-10-06 14:26:00 21.3 39 19.2
003C23A5 2018-10-06 13:18:04 21.3 39 19.2
003C23A5 2018-10-06 12:10:10 21.3 39 16.4
003C23A5 2018-10-06 11:02:12 21.3 39 16.3
003C23A5 2018-10-06 09:54:16 21.3 39 16.3
003C23A5 2018-10-06 08:46:19 21.3 39 16.1
003C23A5 2018-10-06 07:38:26 21.3 39 16
003C23A5 2018-10-06 06:30:24 21.4 39 16
003C23A5 2018-10-06 05:22:28 21.4 39 15.7
003C23A5 2018-10-06 04:14:30 21.5 39 15.7
003C23A5 2018-10-06 03:06:35 21.4 39 15.7
003C23A5 2018-10-06 01:58:36 21.5 39 15.6
003C23A5 2018-10-06 00:50:35 21.5 39 15.6
003C23A5 2018-10-05 23:42:36 21.5 39 15.5
003C23A5 2018-10-05 22:34:38 21.5 39 15.4
003C23A5 2018-10-05 21:26:41 21.5 39 15
003C23A5 2018-10-05 20:18:48 21.5 39 14.4
003C23A5 2018-10-05 19:10:53 21.5 39 14.2
003C23A5 2018-10-05 18:02:57 21.5 38 18.1
003C23A5 2018-10-05 16:55:02 21.5 38 18.2
003C23A5 2018-10-05 15:47:01 21.4 38 18.1
003C23A5 2018-10-05 14:39:05 21.3 37 18.2
003C23A5 2018-10-05 13:31:04 21.3 37 18.1
003C23A5 2018-10-05 12:23:06 21.2 37 18.2
003C23A5 2018-10-05 11:15:11 21 35 18.2
003C23A5 2018-10-05 08:59:18 21 34 18.2
003C23A5 2018-10-05 07:51:21 20.9 33 18.2
003C23A5 2018-10-05 06:43:27 20.9 33 18.3
003C23A5 2018-10-05 05:35:28 21 33 18.4
003C23A5 2018-10-05 04:27:33 21 34 18.4
003C23A5 2018-10-05 03:19:40 21 34 19.1
003C23A5 2018-10-05 02:11:42 21 34 19.2
003C23A5 2018-10-05 01:03:46 21 34 19.1
003C23A5 2018-10-04 23:55:53 21 34 19
003C23A5 2018-10-04 22:47:52 21 34 19.1
003C23A5 2018-10-04 21:39:50 21 34 19.2
003C23A5 2018-10-04 20:31:52 21 35 19.4
003C23A5 2018-10-04 19:23:55 20.9 35 19.5
003C23A5 2018-10-04 18:15:53 20.8 35 19.6
003C23A5 2018-10-04 17:07:51 20.7 35 19.7
003C23A5 2018-10-04 15:59:51 20.6 35 19.9
003C23A5 2018-10-04 13:43:48 20.3 36 20.2
003C23A5 2018-10-04 11:27:47 20.2 38 20.4
003C23A5 2018-10-04 10:19:45 20.2 39 17
003C23A5 2018-10-04 09:11:44 20.1 39 17.2
003C23A5 2018-10-04 08:03:40 20.2 40 17.3
003C23A5 2018-10-04 06:55:37 20.2 41 17.5
003C23A5 2018-10-04 04:39:31 20.2 41 17.6
003C23A5 2018-10-04 01:15:22 20.2 42 17.8
003C23A5 2018-10-04 00:07:21 20.3 43 18.2
003C23A5 2018-10-03 22:59:19 20.4 43 18.4
003C23A5 2018-10-03 21:51:15 20.4 43 18.3
003C23A5 2018-10-03 20:43:15 20.4 44 18.7
003C23A5 2018-10-03 19:35:09 20.4 44 19.2
003C23A5 2018-10-03 18:27:10 20.4 44 20.1
003C23A5 2018-10-03 17:19:08 20.5 45 13.4
003C23A5 2018-10-03 16:11:06 20.5 45 8.3
003C23A5 2018-10-03 15:03:03 20.6 45 7.8
003C23A5 2018-10-03 13:54:56 20.5 48 0